Time,TemperatureF,DewpointF,PressureIn,WindDirection,WindDirectionDegrees,WindSpeedMPH,WindSpeedGustMPH,Humidity,HourlyPrecipIn,Conditions,Clouds,dailyrainin,SoftwareType,DateUTC
2013-10-10 00:05:00,50.4,47.0,30.18,East,85,0.0,0.0,87,0.00,,,0.00,weatherlink.com 1.10,2013-10-10 04:05:00,
2013-10-10 00:20:00,50.1,47.0,30.18,East,85,2.0,3.0,88,0.00,,,0.00,weatherlink.com 1.10,2013-10-10 04:20:00,
2013-10-10 00:36:00,49.9,47.0,30.18,East,85,0.0,3.0,88,0.00,,,0.00,weatherlink.com 1.10,2013-10-10 04:36:00,
2013-10-10 00:51:00,49.8,46.0,30.17,East,85,0.0,0.0,88,0.00,,,0.00,weatherlink.com 1.10,2013-10-10 04:51:00,
2013-10-10 01:07:00,49.0,46.0,30.17,East,85,0.0,0.0,89,0.00,,,0.00,weatherlink.com 1.10,2013-10-10 05:07:00,
2013-10-10 01:21:00,48.7,46.0,30.17,East,85,0.0,0.0,89,0.00,,,0.00,weatherlink.com 1.10,2013-10-10 05:21:00,
2013-10-10 01:37:00,48.3,46.0,30.16,East,85,0.0,0.0,90,0.00,,,0.00,weatherlink.com 1.10,2013-10-10 05:37:00,
2013-10-10 01:52:00,48.0,45.0,30.16,East,85,0.0,2.0,90,0.00,,,0.00,weatherlink.com 1.10,2013-10-10 05:52:00,
2013-10-10 02:07:00,47.8,45.0,30.16,East,85,0.0,0.0,91,0.00,,,0.00,weatherlink.com 1.10,2013-10-10 06:07:00,
2013-10-10 02:22:00,47.3,45.0,30.17,East,85,0.0,0.0,91,0.00,,,0.00,weatherlink.com 1.10,2013-10-10 06:22:00,
2013-10-10 02:38:00,46.7,44.0,30.18,East,85,0.0,0.0,91,0.00,,,0.00,weatherlink.com 1.10,2013-10-10 06:38:00,
2013-10-10 02:53:00,46.3,44.0,30.18,East,85,0.0,0.0,92,0.00,,,0.00,weatherlink.com 1.10,2013-10-10 06:53:00,
2013-10-10 03:08:00,46.3,44.0,30.18,East,85,0.0,0.0,93,0.00,,,0.00,weatherlink.com 1.10,2013-10-10 07:08:00,
2013-10-10 03:25:00,46.1,44.0,30.18,East,85,0.0,0.0,93,0.00,,,0.00,weatherlink.com 1.10,2013-10-10 07:25:00,
2013-10-10 03:40:00,45.8,44.0,30.18,East,85,0.0,0.0,93,0.00,,,0.00,weatherlink.com 1.10,2013-10-10 07:40:00,
2013-10-10 03:55:00,45.5,44.0,30.17,East,85,0.0,0.0,93,0.00,,,0.00,weatherlink.com 1.10,2013-10-10 07:55:00,
2013-10-10 04:25:00,45.2,44.0,30.18,East,85,0.0,0.0,94,0.00,,,0.00,weatherlink.com 1.10,2013-10-10 08:25:00,
2013-10-10 04:40:00,44.9,43.0,30.18,East,85,0.0,0.0,94,0.00,,,0.00,weatherlink.com 1.10,2013-10-10 08:40:00,
2013-10-10 04:55:00,44.7,43.0,30.18,East,85,0.0,0.0,94,0.00,,,0.00,weatherlink.com 1.10,2013-10-10 08:55:00,
2013-10-10 05:11:00,44.5,43.0,30.18,East,85,0.0,0.0,94,0.00,,,0.00,weatherlink.com 1.10,2013-10-10 09:11:00,
2013-10-10 05:26:00,44.1,43.0,30.18,East,85,0.0,0.0,94,0.00,,,0.00,weatherlink.com 1.10,2013-10-10 09:26:00,
2013-10-10 05:41:00,44.0,43.0,30.19,East,85,0.0,0.0,95,0.00,,,0.00,weatherlink.com 1.10,2013-10-10 09:41:00,
2013-10-10 05:56:00,44.2,43.0,30.20,East,85,0.0,0.0,95,0.00,,,0.00,weatherlink.com 1.10,2013-10-10 09:56:00,
2013-10-10 06:11:00,44.0,43.0,30.19,East,85,0.0,0.0,95,0.00,,,0.00,weatherlink.com 1.10,2013-10-10 10:11:00,
2013-10-10 06:27:00,43.9,43.0,30.20,East,85,0.0,0.0,95,0.00,,,0.00,weatherlink.com 1.10,2013-10-10 10:27:00,
2013-10-10 06:42:00,43.6,42.0,30.20,East,85,0.0,0.0,95,0.00,,,0.00,weatherlink.com 1.10,2013-10-10 10:42:00,
2013-10-10 06:57:00,43.4,42.0,30.19,East,85,0.0,0.0,95,0.00,,,0.00,weatherlink.com 1.10,2013-10-10 10:57:00,
2013-10-10 07:13:00,43.2,42.0,30.19,East,85,0.0,0.0,95,0.00,,,0.00,weatherlink.com 1.10,2013-10-10 11:13:00,
2013-10-10 07:28:00,43.1,42.0,30.19,East,85,0.0,0.0,95,0.00,,,0.00,weatherlink.com 1.10,2013-10-10 11:28:00,
2013-10-10 07:43:00,42.9,42.0,30.19,East,85,0.0,0.0,95,0.00,,,0.00,weatherlink.com 1.10,2013-10-10 11:43:00,
2013-10-10 07:58:00,42.7,41.0,30.19,East,85,0.0,0.0,95,0.00,,,0.00,weatherlink.com 1.10,2013-10-10 11:58:00,
2013-10-10 08:13:00,42.7,42.0,30.19,East,85,0.0,0.0,96,0.00,,,0.00,weatherlink.com 1.10,2013-10-10 12:13:00,
2013-10-10 08:30:00,44.2,43.0,30.19,East,85,0.0,0.0,97,0.00,,,0.00,weatherlink.com 1.10,2013-10-10 12:30:00,
2013-10-10 08:45:00,46.1,45.0,30.19,East,85,0.0,0.0,97,0.00,,,0.00,weatherlink.com 1.10,2013-10-10 12:45:00,
2013-10-10 09:00:00,48.8,48.0,30.19,East,85,0.0,0.0,97,0.00,,,0.00,weatherlink.com 1.10,2013-10-10 13:00:00,
2013-10-10 09:14:00,51.5,51.0,30.19,East,85,1.0,2.0,97,0.00,,,0.00,weatherlink.com 1.10,2013-10-10 13:14:00,
2013-10-10 09:30:00,53.8,52.0,30.19,East,85,0.0,3.0,94,0.00,,,0.00,weatherlink.com 1.10,2013-10-10 13:30:00,
2013-10-10 09:45:00,56.1,52.0,30.20,East,85,1.0,2.0,86,0.00,,,0.00,weatherlink.com 1.10,2013-10-10 13:45:00,
2013-10-10 10:01:00,57.3,53.0,30.20,East,85,0.0,0.0,84,0.00,,,0.00,weatherlink.com 1.10,2013-10-10 14:01:00,
2013-10-10 10:16:00,59.0,53.0,30.20,East,85,0.0,3.0,80,0.00,,,0.00,weatherlink.com 1.10,2013-10-10 14:16:00,
2013-10-10 10:31:00,61.3,53.0,30.20,East,85,0.0,1.0,75,0.00,,,0.00,weatherlink.com 1.10,2013-10-10 14:31:00,
2013-10-10 10:46:00,63.1,53.0,30.20,East,85,1.0,2.0,70,0.00,,,0.00,weatherlink.com 1.10,2013-10-10 14:46:00,
2013-10-10 11:01:00,64.8,54.0,30.20,East,85,0.0,0.0,68,0.00,,,0.00,weatherlink.com 1.10,2013-10-10 15:01:00,
2013-10-10 11:17:00,66.0,54.0,30.20,East,85,0.0,3.0,65,0.00,,,0.00,weatherlink.com 1.10,2013-10-10 15:17:00,
2013-10-10 11:32:00,66.5,54.0,30.20,East,88,0.0,5.0,64,0.00,,,0.00,weatherlink.com 1.10,2013-10-10 15:32:00,
2013-10-10 11:47:00,67.4,52.0,30.20,East,89,0.0,5.0,58,0.00,,,0.00,weatherlink.com 1.10,2013-10-10 15:47:00,
2013-10-10 12:03:00,69.5,53.0,30.19,East,89,0.0,3.0,57,0.00,,,0.00,weatherlink.com 1.10,2013-10-10 16:03:00,
2013-10-10 12:19:00,70.1,50.0,30.19,ENE,72,2.0,9.0,50,0.00,,,0.00,weatherlink.com 1.10,2013-10-10 16:19:00,
2013-10-10 12:33:00,71.2,52.0,30.19,East,86,0.0,9.0,50,0.00,,,0.00,weatherlink.com 1.10,2013-10-10 16:33:00,
2013-10-10 12:48:00,71.4,53.0,30.18,East,88,0.0,5.0,53,0.00,,,0.00,weatherlink.com 1.10,2013-10-10 16:48:00,
2013-10-10 13:05:00,71.1,51.0,30.18,East,88,3.0,5.0,49,0.00,,,0.00,weatherlink.com 1.10,2013-10-10 17:05:00,
2013-10-10 13:20:00,72.3,52.0,30.18,ENE,72,8.0,8.0,49,0.00,,,0.00,weatherlink.com 1.10,2013-10-10 17:20:00,
2013-10-10 13:35:00,72.1,52.0,30.17,ENE,69,2.0,7.0,50,0.00,,,0.00,weatherlink.com 1.10,2013-10-10 17:35:00,
2013-10-10 13:50:00,72.0,50.0,30.16,East,101,1.0,5.0,46,0.00,,,0.00,weatherlink.com 1.10,2013-10-10 17:50:00,
2013-10-10 14:05:00,72.4,51.0,30.16,East,93,2.0,8.0,48,0.00,,,0.00,weatherlink.com 1.10,2013-10-10 18:05:00,
2013-10-10 14:20:00,72.7,51.0,30.16,ESE,104,1.0,8.0,47,0.00,,,0.00,weatherlink.com 1.10,2013-10-10 18:20:00,
2013-10-10 14:35:00,72.6,51.0,30.15,ENE,74,0.0,7.0,47,0.00,,,0.00,weatherlink.com 1.10,2013-10-10 18:35:00,
2013-10-10 14:52:00,73.3,52.0,30.14,ESE,105,3.0,10.0,47,0.00,,,0.00,weatherlink.com 1.10,2013-10-10 18:52:00,
2013-10-10 15:06:00,72.8,50.0,30.14,SE,127,0.0,5.0,45,0.00,,,0.00,weatherlink.com 1.10,2013-10-10 19:06:00,
2013-10-10 15:22:00,73.3,52.0,30.13,ENE,65,4.0,8.0,47,0.00,,,0.00,weatherlink.com 1.10,2013-10-10 19:22:00,
2013-10-10 15:36:00,73.9,52.0,30.13,ENE,61,1.0,5.0,46,0.00,,,0.00,weatherlink.com 1.10,2013-10-10 19:36:00,
2013-10-10 15:51:00,73.4,51.0,30.12,SSW,201,3.0,5.0,45,0.00,,,0.00,weatherlink.com 1.10,2013-10-10 19:51:00,
2013-10-10 16:07:00,72.8,51.0,30.12,SSE,154,0.0,5.0,46,0.00,,,0.00,weatherlink.com 1.10,2013-10-10 20:07:00,
2013-10-10 16:22:00,74.1,51.0,30.11,SSE,155,3.0,4.0,44,0.00,,,0.00,weatherlink.com 1.10,2013-10-10 20:22:00,
2013-10-10 16:37:00,72.9,50.0,30.10,ESE,109,2.0,5.0,44,0.00,,,0.00,weatherlink.com 1.10,2013-10-10 20:37:00,
2013-10-10 16:52:00,73.3,50.0,30.10,ENE,61,4.0,5.0,44,0.00,,,0.00,weatherlink.com 1.10,2013-10-10 20:52:00,
2013-10-10 17:07:00,74.6,52.0,30.10,ENE,61,0.0,2.0,46,0.00,,,0.00,weatherlink.com 1.10,2013-10-10 21:07:00,
2013-10-10 17:23:00,73.6,49.0,30.10,SE,136,0.0,4.0,42,0.00,,,0.00,weatherlink.com 1.10,2013-10-10 21:23:00,
2013-10-10 17:38:00,73.2,51.0,30.10,ESE,117,2.0,4.0,46,0.00,,,0.00,weatherlink.com 1.10,2013-10-10 21:38:00,
2013-10-10 17:54:00,73.0,48.0,30.10,East,92,1.0,6.0,41,0.00,,,0.00,weatherlink.com 1.10,2013-10-10 21:54:00,
2013-10-10 18:10:00,74.0,47.0,30.10,East,92,0.0,3.0,39,0.00,,,0.00,weatherlink.com 1.10,2013-10-10 22:10:00,
2013-10-10 18:25:00,73.4,50.0,30.09,East,92,0.0,5.0,44,0.00,,,0.00,weatherlink.com 1.10,2013-10-10 22:25:00,
2013-10-10 18:40:00,70.8,54.0,30.09,East,92,0.0,0.0,55,0.00,,,0.00,weatherlink.com 1.10,2013-10-10 22:40:00,
2013-10-10 18:55:00,66.4,51.0,30.09,East,92,0.0,0.0,57,0.00,,,0.00,weatherlink.com 1.10,2013-10-10 22:55:00,
2013-10-10 19:10:00,64.1,51.0,30.09,East,92,0.0,0.0,62,0.00,,,0.00,weatherlink.com 1.10,2013-10-10 23:10:00,
2013-10-10 19:25:00,62.0,51.0,30.09,East,92,0.0,0.0,68,0.00,,,0.00,weatherlink.com 1.10,2013-10-10 23:25:00,
2013-10-10 19:40:00,60.2,50.0,30.09,East,92,0.0,0.0,69,0.00,,,0.00,weatherlink.com 1.10,2013-10-10 23:40:00,
2013-10-10 19:55:00,58.7,50.0,30.10,East,92,0.0,0.0,72,0.00,,,0.00,weatherlink.com 1.10,2013-10-10 23:55:00,
2013-10-10 20:11:00,57.4,50.0,30.10,East,92,0.0,0.0,76,0.00,,,0.00,weatherlink.com 1.10,2013-10-11 00:11:00,
2013-10-10 20:26:00,56.1,49.0,30.10,East,92,0.0,0.0,78,0.00,,,0.00,weatherlink.com 1.10,2013-10-11 00:26:00,
2013-10-10 20:41:00,55.2,50.0,30.10,East,92,0.0,0.0,81,0.00,,,0.00,weatherlink.com 1.10,2013-10-11 00:41:00,
2013-10-10 20:57:00,54.2,49.0,30.10,East,92,0.0,0.0,82,0.00,,,0.00,weatherlink.com 1.10,2013-10-11 00:57:00,
2013-10-10 21:12:00,53.8,48.0,30.10,East,92,0.0,0.0,82,0.00,,,0.00,weatherlink.com 1.10,2013-10-11 01:12:00,
2013-10-10 21:27:00,53.1,48.0,30.10,East,92,0.0,0.0,84,0.00,,,0.00,weatherlink.com 1.10,2013-10-11 01:27:00,
2013-10-10 21:42:00,52.8,48.0,30.10,East,92,0.0,0.0,85,0.00,,,0.00,weatherlink.com 1.10,2013-10-11 01:42:00,
2013-10-10 21:58:00,52.5,48.0,30.10,East,92,0.0,0.0,84,0.00,,,0.00,weatherlink.com 1.10,2013-10-11 01:58:00,
2013-10-10 22:13:00,52.1,48.0,30.10,East,92,0.0,0.0,85,0.00,,,0.00,weatherlink.com 1.10,2013-10-11 02:13:00,
2013-10-10 22:28:00,51.6,48.0,30.10,East,92,0.0,0.0,86,0.00,,,0.00,weatherlink.com 1.10,2013-10-11 02:28:00,
2013-10-10 22:43:00,51.4,47.0,30.10,East,92,0.0,0.0,86,0.00,,,0.00,weatherlink.com 1.10,2013-10-11 02:43:00,
2013-10-10 22:58:00,51.0,47.0,30.10,East,92,0.0,0.0,87,0.00,,,0.00,weatherlink.com 1.10,2013-10-11 02:58:00,
2013-10-10 23:15:00,50.4,47.0,30.10,East,92,0.0,0.0,88,0.00,,,0.00,weatherlink.com 1.10,2013-10-11 03:15:00,
2013-10-10 23:30:00,49.9,47.0,30.09,East,92,0.0,2.0,89,0.00,,,0.00,weatherlink.com 1.10,2013-10-11 03:30:00,
2013-10-10 23:45:00,49.5,46.0,30.09,East,92,2.0,3.0,89,0.00,,,0.00,weatherlink.com 1.10,2013-10-11 03:45:00,